Overview Statistics Trail Chart Weather Telemetry Raw packets
 

This is the latest recevied weather packets stored in our database for station/object SP6KBU-12. If no packets are shown the sender has not sent any weather packets the latest 10 day(s).

<< 3 4 5 6 7 8 9 >>
Time Temp. Humidity Pressure Rain* Wind** Luminosity Snow
1788515452 22.22° C 58% 1016.3 hPa - - - -
1788514551 20.56° C 63% 1016.4 hPa - - - -
1788513650 20.56° C 61% 1016.7 hPa - - - -
1788512750 20° C 62% 1016.9 hPa - - - -
1788511849 20° C 63% 1017 hPa - - - -
1788510950 20.56° C 60% 1017.2 hPa - - - -
1788510091 20° C 62% 1017.4 hPa - - - -
1788510075 20° C 62% 1017.4 hPa - - - -
1788509149 20° C 61% 1017.3 hPa - - - -
1788508249 20.56° C 60% 1017.6 hPa - - - -
1788507348 20° C 62% 1017.7 hPa - - - -
1788506448 18.89° C 65% 1017.8 hPa - - - -
1788505548 18.33° C 65% 1017.7 hPa - - - -
1788504648 17.78° C 67% 1018.1 hPa - - - -
1788503748 17.22° C 68% 1017.7 hPa - - - -
1788502848 17.78° C 67% 1017.7 hPa - - - -
1788502040 17.78° C 68% 1017.7 hPa - - - -
1788502004 17.78° C 68% 1017.7 hPa - - - -
1788501104 17.22° C 68% 1018.2 hPa - - - -
1788500241 16.67° C 69% 1018.4 hPa - - - -
1788500203 16.67° C 69% 1018.4 hPa - - - -
1788499303 16.67° C 70% 1018.6 hPa - - - -
1788498403 16.11° C 69% 1018.5 hPa - - - -
1788497536 16.11° C 69% 1018.3 hPa - - - -
1788497503 16.11° C 69% 1018.3 hPa - - - -

* Rain since midnight (hover to see other rain measurements)
** Current wind speed in m/s (hover to see current wind gust speed)